Regional Weather Roundup
Issued by NWS Green Bay, WI

Home | Current Version | Previous Version | Graphics & Text | Print | Product List | Glossary Off
Versions: 1 2 3 4 5 6 7 8 9 10 11 12 13 14 15 16 17 18 19 20 21 22 23 24 25 26 27 28 29 30 31 32 33 34 35 36 37 38 39 40 41 42 43 44 45 46 47 48 49 50

000
ASUS43 KGRB 271001
RWRGRB

NORTH-CENTRAL AND NORTHEAST WISCONSIN REGIONAL WEATHER ROUNDUP
NATIONAL WEATHER SERVICE GREEN BAY WI
500 AM CDT TUE JUN 27 2017

WIZ005-009-010>012-018-019-271100-
NORTH CENTRAL WISCONSIN

CITY           SKY/WX    TMP DP  RH WIND       PRES   REMARKS
IRONWOOD       CLEAR     49  47  93 SW3       30.03R
MANITOWISH WTR NOT AVBL
ARBOR VITAE    NOT AVBL
EAGLE RIVER    NOT AVBL
LAND O LAKES   MOCLDY    45  45 100 CALM      30.05R
RHINELANDER    CLOUDY    48  48 100 W5        30.05S
PHILLIPS       CLEAR     48  47  97 CALM      30.04F
ANTIGO         NOT AVBL
TOMAHAWK       NOT AVBL
MERRILL        PTCLDY    42  42 100 CALM      30.06F
$$

WIZ013-073-271100-
NORTHEAST WISCONSIN

CITY           SKY/WX    TMP DP  RH WIND       PRES   REMARKS
IRON MOUNTAIN  PTCLDY    47  43  86 CALM      30.01R
MARINETTE      CLEAR     48  46  93 W3        30.03R
$$

WIZ017-030-035>037-045-271100-
CENTRAL WISCONSIN

CITY           SKY/WX    TMP DP  RH WIND       PRES   REMARKS
MEDFORD        NOT AVBL
WAUSAU         MOCLDY    50  47  89 NW7       30.05S
MOSINEE        NOT AVBL
MARSHFIELD     PTCLDY    50  45  83 W7        30.07S
WISC RAPIDS    MOCLDY    50  47  89 W5        30.09S
STEVENS POINT  NOT AVBL
WAUPACA        CLEAR     52  49  89 W6        30.07S
SHAWANO        NOT AVBL
CLINTONVILLE   CLEAR     46  43  87 CALM      30.06R
WAUTOMA        CLEAR     44  43  96 CALM      30.08S
$$

WIZ038-039-048-051-271100-
FOX VALLEY

CITY           SKY/WX    TMP DP  RH WIND       PRES   REMARKS
NWS GREEN BAY  CLEAR     49  48  97 W5        30.04S
APPLETON       NOT AVBL
OSHKOSH        CLEAR     50  46  86 W3        30.06R
FOND DU LAC    CLEAR     50  45  83 SW3       30.08R
$$

WIZ022-050-052-271100-
EAST CENTRAL WISCONSIN

CITY           SKY/WX    TMP DP  RH WIND       PRES   REMARKS
EPHRAIM        FAIR      52  48  87 W5        30.01R
WASHINGTON ISL NOT AVBL
STURGEON BAY     N/A     51  49  92 W3          N/A
MANITOWOC      NOT AVBL
SHEBOYGAN      CLEAR     50  48  93 W6        30.06R
$$

LMZ563-521-522-541>543-271100-
LAKESHORE

STATION/POSITION TIME  TEMP    WIND        PRES    VSBY  WAVE
                       AIR SEA DIR/SP/G                  HT/PER
                 (UTC) (F)     (DEG/KT/KT) (MB)    (MI)  (FT/S)
SHEBOYGAN LKSHOR 0900   54     260/  8/ 10 1017.3F
KEWAUNEE LKSHORE 0930   51     290/  5/  8 1016.5R
NORTHPORT PIER   0940   57     270/  4/  7 1015.9R
N MID LAKE BUOY  0850   56 54  250/  6/  8 1016.3F         0
S GREEN BAY BUOY 0930   56     290/ 12/ 14 1016.4R
CHAMBERS ISLAND  0940   53     230/  4/  6 1015.9S
MENOMINEE LKSHOR 0924          250/  8/ 10 1015.5
$$



USA.gov is the U.S. government's official web portal to all federal, state and local government web resources and services.